RYR628R LEMI-EIDW

Flight info

Callsign RYR628R
Flight time 2h 28m
Altitude 30000
Route ALT L150 ASTRO/N0437F360 DCT CATON DCT CENTA DCT PRADO DCT BENED DCT CJN L150 RBO DCT OSTIX DCT GASMO DCT DGO DCT BLV DCT DOSUL DCT XORNA DCT DELOG DCT DOLUR/N0435F380 DCT UPCAB DCT IJALA DCT EVRIN DCT BUNED BUNED3R
Aircraft B738/M-SDE3FGIJ1LRWY/SB1

Departure

Time 2026-04-23 19:57
Airport Region of Murcia International Airport (LEMI)

Arrival

Time 2026-04-23 22:25
Airport Dublin Airport (EIDW)
Time Latitude Longitude Altitude Speed Heading
2026-04-23 19:17 37.80350 -1.13118 646 ft 0 kts 315°
2026-04-23 19:49 37.80349 -1.13118 619 ft 1 kts 315°
2026-04-23 19:49 37.80333 -1.13096 647 ft 4 kts 308°
2026-04-23 19:50 37.80318 -1.13067 646 ft 4 kts 290°
2026-04-23 19:50 37.80315 -1.13037 646 ft 4 kts 245°
2026-04-23 19:50 37.80319 -1.13027 648 ft 0 kts 225°
2026-04-23 19:53 37.80305 -1.13045 649 ft 7 kts 226°
2026-04-23 19:53 37.80255 -1.13112 646 ft 12 kts 226°
2026-04-23 19:53 37.80185 -1.13150 646 ft 12 kts 162°
2026-04-23 19:53 37.80119 -1.13088 646 ft 12 kts 148°
2026-04-23 19:54 37.80043 -1.13131 647 ft 15 kts 225°
2026-04-23 19:54 37.79946 -1.13255 649 ft 24 kts 225°
2026-04-23 19:54 37.79827 -1.13408 650 ft 24 kts 225°
2026-04-23 19:54 37.79714 -1.13554 649 ft 23 kts 225°
2026-04-23 19:55 37.79642 -1.13647 647 ft 22 kts 225°
2026-04-23 19:55 37.79552 -1.13762 646 ft 10 kts 225°
2026-04-23 19:55 37.79491 -1.13770 646 ft 9 kts 147°
2026-04-23 19:55 37.79435 -1.13708 645 ft 13 kts 137°
2026-04-23 19:56 37.79422 -1.13621 644 ft 13 kts 47°
2026-04-23 19:56 37.79560 -1.13441 646 ft 61 kts 45°
2026-04-23 19:56 37.80039 -1.12826 642 ft 133 kts 45°
2026-04-23 19:56 37.80780 -1.11867 1092 ft 155 kts 45°
2026-04-23 19:57 37.81522 -1.10942 2180 ft 146 kts 47°
2026-04-23 19:57 37.82311 -1.09982 2743 ft 171 kts 48°
2026-04-23 19:57 37.83246 -1.08857 2984 ft 199 kts 48°
2026-04-23 19:57 37.84324 -1.07566 3206 ft 227 kts 47°
2026-04-23 19:58 37.85515 -1.06149 3767 ft 242 kts 47°
2026-04-23 19:58 37.86770 -1.04662 4559 ft 251 kts 46°
2026-04-23 19:58 37.88070 -1.03122 5376 ft 261 kts 46°
2026-04-23 19:58 37.89402 -1.01546 6371 ft 265 kts 46°
2026-04-23 19:59 37.90782 -0.99909 7106 ft 278 kts 46°
2026-04-23 19:59 37.92194 -0.98233 7913 ft 286 kts 46°
2026-04-23 19:59 37.93668 -0.96480 8724 ft 296 kts 46°
2026-04-23 19:59 37.95181 -0.94684 9615 ft 302 kts 45°
2026-04-23 20:00 37.96730 -0.92844 10424 ft 308 kts 45°
2026-04-23 20:00 37.98348 -0.90921 10791 ft 333 kts 44°
2026-04-23 20:00 38.00097 -0.88838 11131 ft 354 kts 44°
2026-04-23 20:00 38.01912 -0.86675 11847 ft 361 kts 44°
2026-04-23 20:01 38.03745 -0.84491 12746 ft 363 kts 44°
2026-04-23 20:01 38.05594 -0.82285 13563 ft 368 kts 44°
2026-04-23 20:01 38.07471 -0.80044 14354 ft 372 kts 44°
2026-04-23 20:01 38.09513 -0.78002 15050 ft 379 kts 27°
2026-04-23 20:02 38.12053 -0.77122 15755 ft 383 kts
2026-04-23 20:02 38.14703 -0.77424 16566 ft 383 kts 348°
2026-04-23 20:02 38.17290 -0.78293 17279 ft 387 kts 338°
2026-04-23 20:02 38.19715 -0.79779 18004 ft 389 kts 328°
2026-04-23 20:03 38.22056 -0.81514 18756 ft 391 kts 327°
2026-04-23 20:03 38.24394 -0.83310 19408 ft 394 kts 327°
2026-04-23 20:03 38.26748 -0.85145 20023 ft 398 kts 326°
2026-04-23 20:03 38.29120 -0.87003 20655 ft 402 kts 326°
2026-04-23 20:04 38.31517 -0.88881 21274 ft 406 kts 326°
2026-04-23 20:04 38.33931 -0.90769 21883 ft 409 kts 326°
2026-04-23 20:04 38.36376 -0.92679 22499 ft 413 kts 326°
2026-04-23 20:04 38.38835 -0.94598 23088 ft 417 kts 326°
2026-04-23 20:05 38.41319 -0.96537 23658 ft 421 kts 326°
2026-04-23 20:05 38.43830 -0.98496 24135 ft 424 kts 326°
2026-04-23 20:05 38.46353 -1.00467 24625 ft 427 kts 326°
2026-04-23 20:05 38.48892 -1.02451 25133 ft 429 kts 326°
2026-04-23 20:06 38.51451 -1.04451 25617 ft 432 kts 326°
2026-04-23 20:06 38.54018 -1.06460 26068 ft 435 kts 326°
2026-04-23 20:06 38.56602 -1.08506 26523 ft 438 kts 325°
2026-04-23 20:06 38.59137 -1.10683 26961 ft 440 kts 323°
2026-04-23 20:07 38.61648 -1.12935 27391 ft 443 kts 322°
2026-04-23 20:07 38.64158 -1.15230 27820 ft 445 kts 322°
2026-04-23 20:07 38.66691 -1.17560 28156 ft 451 kts 322°
2026-04-23 20:07 38.69247 -1.19911 28516 ft 454 kts 322°
2026-04-23 20:08 38.71793 -1.22248 28903 ft 457 kts 322°
2026-04-23 20:08 38.74381 -1.24618 29357 ft 458 kts 322°
2026-04-23 20:08 38.76981 -1.26996 29775 ft 461 kts 322°
2026-04-23 20:08 38.79607 -1.29396 30167 ft 463 kts 322°
2026-04-23 20:09 38.82230 -1.31793 30525 ft 464 kts 322°
2026-04-23 20:09 38.84853 -1.34193 30999 ft 462 kts 322°
2026-04-23 20:09 38.87456 -1.36575 31509 ft 459 kts 322°
2026-04-23 20:09 38.90046 -1.38948 32020 ft 456 kts 322°
2026-04-23 20:10 38.92629 -1.41318 32435 ft 455 kts 322°
2026-04-23 20:10 38.95208 -1.43687 32843 ft 455 kts 322°
2026-04-23 20:10 38.97777 -1.46048 33255 ft 454 kts 322°
2026-04-23 20:10 39.00342 -1.48410 33684 ft 453 kts 322°
2026-04-23 20:11 39.02900 -1.50766 34118 ft 452 kts 322°
2026-04-23 20:11 39.05449 -1.53116 34493 ft 450 kts 322°
2026-04-23 20:11 39.07997 -1.55466 34834 ft 450 kts 321°
2026-04-23 20:11 39.10540 -1.57816 35149 ft 450 kts 321°
2026-04-23 20:12 39.13082 -1.60166 35496 ft 449 kts 322°
2026-04-23 20:12 39.15611 -1.62506 35859 ft 447 kts 322°
2026-04-23 20:12 39.18134 -1.64842 36144 ft 448 kts 322°
2026-04-23 20:13 39.23207 -1.69549 36140 ft 453 kts 322°
2026-04-23 20:13 39.28294 -1.74272 36128 ft 445 kts 322°
2026-04-23 20:14 39.33316 -1.78946 36146 ft 445 kts 321°
2026-04-23 20:14 39.38344 -1.83636 36140 ft 446 kts 321°
2026-04-23 20:15 39.43376 -1.88337 36138 ft 447 kts 321°
2026-04-23 20:15 39.48421 -1.93059 36143 ft 448 kts 321°
2026-04-23 20:16 39.53479 -1.97801 36144 ft 449 kts 321°
2026-04-23 20:16 39.58514 -2.02530 36128 ft 450 kts 321°
2026-04-23 20:17 39.63591 -2.07307 36124 ft 451 kts 321°
2026-04-23 20:17 39.68675 -2.12100 36139 ft 452 kts 321°
2026-04-23 20:18 39.73763 -2.16906 36123 ft 453 kts 321°
2026-04-23 20:18 39.78862 -2.21731 36123 ft 453 kts 321°
2026-04-23 20:19 39.83955 -2.26559 36106 ft 453 kts 321°
2026-04-23 20:19 39.89041 -2.31390 36111 ft 452 kts 321°
2026-04-23 20:20 39.94123 -2.36227 36098 ft 452 kts 321°
2026-04-23 20:20 39.99197 -2.41064 36106 ft 452 kts 321°
2026-04-23 20:21 40.04276 -2.45915 36084 ft 452 kts 321°
2026-04-23 20:21 40.09347 -2.50769 36073 ft 452 kts 321°
2026-04-23 20:22 40.14415 -2.55629 36074 ft 452 kts 321°
2026-04-23 20:22 40.19476 -2.60491 36074 ft 451 kts 321°
2026-04-23 20:23 40.24504 -2.65332 36069 ft 451 kts 321°
2026-04-23 20:23 40.29564 -2.70209 36068 ft 452 kts 321°
2026-04-23 20:24 40.34635 -2.75107 36056 ft 453 kts 321°
2026-04-23 20:24 40.39704 -2.80012 36055 ft 453 kts 321°
2026-04-23 20:25 40.44781 -2.84937 36051 ft 454 kts 321°
2026-04-23 20:25 40.49863 -2.89874 36046 ft 455 kts 321°
2026-04-23 20:26 40.54951 -2.94828 36040 ft 455 kts 321°
2026-04-23 20:26 40.60047 -2.99799 36038 ft 455 kts 321°
2026-04-23 20:27 40.65135 -3.04771 36039 ft 456 kts 321°
2026-04-23 20:27 40.70226 -3.09757 36035 ft 456 kts 320°
2026-04-23 20:28 40.75282 -3.14719 36027 ft 456 kts 320°
2026-04-23 20:28 40.80367 -3.19717 36032 ft 455 kts 320°
2026-04-23 20:29 40.85974 -3.23575 36041 ft 462 kts 345°
2026-04-23 20:29 40.92369 -3.24582 36031 ft 465 kts 359°
2026-04-23 20:30 40.98825 -3.23950 36029 ft 466 kts
2026-04-23 20:30 41.08503 -3.22622 36032 ft 466 kts
2026-04-23 20:31 41.14946 -3.21754 36036 ft 465 kts
2026-04-23 20:31 41.21393 -3.20904 36031 ft 465 kts
2026-04-23 20:32 41.27838 -3.20057 36041 ft 465 kts
2026-04-23 20:32 41.34274 -3.19208 36041 ft 465 kts
2026-04-23 20:33 41.40708 -3.18356 36037 ft 464 kts
2026-04-23 20:33 41.47136 -3.17504 36038 ft 464 kts
2026-04-23 20:34 41.53510 -3.16658 36041 ft 463 kts
2026-04-23 20:34 41.59933 -3.15806 36032 ft 463 kts
2026-04-23 20:35 41.66351 -3.14953 36031 ft 464 kts
2026-04-23 20:35 41.72781 -3.14097 36034 ft 464 kts
2026-04-23 20:36 41.79200 -3.13240 36038 ft 464 kts
2026-04-23 20:36 41.85622 -3.12381 36037 ft 464 kts
2026-04-23 20:37 41.92058 -3.11519 36035 ft 464 kts
2026-04-23 20:37 41.98485 -3.10655 36039 ft 465 kts
2026-04-23 20:38 42.04920 -3.09790 36038 ft 465 kts
2026-04-23 20:38 42.11359 -3.08921 36027 ft 465 kts
2026-04-23 20:39 42.17793 -3.08052 36040 ft 464 kts
2026-04-23 20:39 42.24223 -3.07181 36034 ft 464 kts
2026-04-23 20:40 42.30634 -3.06311 36030 ft 463 kts
2026-04-23 20:40 42.35960 -3.05587 36030 ft 462 kts
2026-04-23 20:41 42.43384 -3.04573 36024 ft 460 kts
2026-04-23 20:41 42.49760 -3.03705 36019 ft 460 kts
2026-04-23 20:42 42.55052 -3.02982 36018 ft 459 kts
2026-04-23 20:42 42.61398 -3.02112 36021 ft 458 kts
2026-04-23 20:43 42.67750 -3.01240 36022 ft 458 kts
2026-04-23 20:43 42.74095 -3.00367 36009 ft 458 kts
2026-04-23 20:44 42.80447 -2.99491 36005 ft 458 kts
2026-04-23 20:44 42.86788 -2.98615 36008 ft 458 kts
2026-04-23 20:45 42.93139 -2.97736 36009 ft 459 kts
2026-04-23 20:45 42.99494 -2.96854 36000 ft 459 kts
2026-04-23 20:46 43.05830 -2.96801 36000 ft 453 kts 346°
2026-04-23 20:46 43.11651 -2.99729 35987 ft 447 kts 328°
2026-04-23 20:47 43.17080 -3.03987 35993 ft 447 kts 326°
2026-04-23 20:47 43.22437 -3.08330 35998 ft 448 kts 326°
2026-04-23 20:48 43.27818 -3.12681 35978 ft 449 kts 327°
2026-04-23 20:48 43.33184 -3.17002 35975 ft 450 kts 327°
2026-04-23 20:49 43.38586 -3.21350 35988 ft 450 kts 327°
2026-04-23 20:49 43.43997 -3.25713 35970 ft 451 kts 327°
2026-04-23 20:50 43.49410 -3.30087 35968 ft 452 kts 327°
2026-04-23 20:50 43.54828 -3.34474 35964 ft 452 kts 327°
2026-04-23 20:51 43.60254 -3.38878 35979 ft 452 kts 327°
2026-04-23 20:51 43.65670 -3.43283 35964 ft 452 kts 326°
2026-04-23 20:52 43.71083 -3.47698 35964 ft 452 kts 327°
2026-04-23 20:52 43.76500 -3.52124 35975 ft 453 kts 327°
2026-04-23 20:53 43.81935 -3.56570 35979 ft 453 kts 327°
2026-04-23 20:53 43.87369 -3.61027 35978 ft 454 kts 327°
2026-04-23 20:54 43.92776 -3.65471 35981 ft 455 kts 327°
2026-04-23 20:54 43.98221 -3.69957 35996 ft 455 kts 326°
2026-04-23 20:55 44.03663 -3.74445 35986 ft 454 kts 326°
2026-04-23 20:55 44.09095 -3.78940 35987 ft 453 kts 326°
2026-04-23 20:56 44.14503 -3.83429 36000 ft 452 kts 326°
2026-04-23 20:56 44.19981 -3.87727 35989 ft 455 kts 336°
2026-04-23 20:57 44.23008 -3.88935 36034 ft 462 kts 349°
2026-04-23 20:57 44.26221 -3.89424 36236 ft 466 kts 353°
2026-04-23 20:57 44.29436 -3.89905 36604 ft 463 kts 351°
2026-04-23 20:57 44.32621 -3.90516 37009 ft 460 kts 350°
2026-04-23 20:58 44.35790 -3.91161 37356 ft 459 kts 350°
2026-04-23 20:58 44.38958 -3.91804 37645 ft 459 kts 350°
2026-04-23 20:58 44.42123 -3.92447 37923 ft 459 kts 350°
2026-04-23 20:58 44.45292 -3.93092 38017 ft 462 kts 350°
2026-04-23 20:59 44.51675 -3.94393 38007 ft 462 kts 350°
2026-04-23 20:59 44.57997 -3.95684 38007 ft 454 kts 350°
2026-04-23 21:00 44.64237 -3.96962 38022 ft 452 kts 350°
2026-04-23 21:00 44.70448 -3.98238 38021 ft 451 kts 350°
2026-04-23 21:01 44.76611 -3.99506 38019 ft 451 kts 350°
2026-04-23 21:01 44.82818 -4.00787 38034 ft 451 kts 350°
2026-04-23 21:02 44.89053 -4.02076 38020 ft 452 kts 350°
2026-04-23 21:02 44.95296 -4.03369 38038 ft 454 kts 350°
2026-04-23 21:03 45.01551 -4.04668 38032 ft 455 kts 350°
2026-04-23 21:03 45.07822 -4.05972 38035 ft 456 kts 350°
2026-04-23 21:04 45.14097 -4.07280 38035 ft 456 kts 350°
2026-04-23 21:04 45.20341 -4.08585 38029 ft 456 kts 350°
2026-04-23 21:05 45.26615 -4.09899 38037 ft 455 kts 350°
2026-04-23 21:05 45.32888 -4.11216 38048 ft 455 kts 350°
2026-04-23 21:06 45.39155 -4.12534 38043 ft 454 kts 350°
2026-04-23 21:06 45.45404 -4.13852 38043 ft 454 kts 350°
2026-04-23 21:07 45.51651 -4.15172 38048 ft 453 kts 350°
2026-04-23 21:07 45.57854 -4.16486 38045 ft 453 kts 350°
2026-04-23 21:08 45.64082 -4.17808 38047 ft 453 kts 350°
2026-04-23 21:08 45.70315 -4.19134 38059 ft 452 kts 350°
2026-04-23 21:09 45.76549 -4.20463 38056 ft 452 kts 350°
2026-04-23 21:09 45.82781 -4.21795 38054 ft 453 kts 350°
2026-04-23 21:10 45.88978 -4.23123 38057 ft 453 kts 350°
2026-04-23 21:10 45.95212 -4.24461 38060 ft 453 kts 350°
2026-04-23 21:11 46.01449 -4.25803 38065 ft 453 kts 350°
2026-04-23 21:11 46.07685 -4.27148 38063 ft 453 kts 350°
2026-04-23 21:12 46.13917 -4.28495 38069 ft 453 kts 350°
2026-04-23 21:12 46.20153 -4.29846 38070 ft 453 kts 350°
2026-04-23 21:13 46.26386 -4.31200 38071 ft 453 kts 350°
2026-04-23 21:13 46.32622 -4.32557 38074 ft 453 kts 350°
2026-04-23 21:14 46.38850 -4.33915 38074 ft 453 kts 350°
2026-04-23 21:14 46.45042 -4.35269 38076 ft 452 kts 350°
2026-04-23 21:15 46.51267 -4.36633 38088 ft 452 kts 350°
2026-04-23 21:15 46.57487 -4.38000 38081 ft 452 kts 350°
2026-04-23 21:16 46.63696 -4.39367 38079 ft 451 kts 350°
2026-04-23 21:16 46.69903 -4.40736 38088 ft 451 kts 350°
2026-04-23 21:17 46.76103 -4.42108 38093 ft 451 kts 350°
2026-04-23 21:17 46.82304 -4.43483 38087 ft 451 kts 350°
2026-04-23 21:18 46.88504 -4.44861 38092 ft 450 kts 350°
2026-04-23 21:18 46.94701 -4.46241 38098 ft 450 kts 350°
2026-04-23 21:19 47.00899 -4.47625 38101 ft 450 kts 350°
2026-04-23 21:19 47.07053 -4.49002 38095 ft 450 kts 349°
2026-04-23 21:20 47.13250 -4.50392 38103 ft 450 kts 350°
2026-04-23 21:20 47.19444 -4.51785 38110 ft 450 kts 349°
2026-04-23 21:21 47.25635 -4.53181 38105 ft 450 kts 350°
2026-04-23 21:21 47.31818 -4.54577 38103 ft 450 kts 349°
2026-04-23 21:22 47.38007 -4.55979 38111 ft 450 kts 349°
2026-04-23 21:22 47.44200 -4.57385 38118 ft 449 kts 349°
2026-04-23 21:23 47.50386 -4.58793 38118 ft 450 kts 350°
2026-04-23 21:23 47.56574 -4.60204 38114 ft 450 kts 349°
2026-04-23 21:24 47.62752 -4.61616 38123 ft 449 kts 349°
2026-04-23 21:24 47.68892 -4.63023 38128 ft 449 kts 350°
2026-04-23 21:25 47.75064 -4.64441 38127 ft 449 kts 350°
2026-04-23 21:25 47.81232 -4.65861 38125 ft 448 kts 349°
2026-04-23 21:26 47.87391 -4.67283 38133 ft 447 kts 350°
2026-04-23 21:26 47.93544 -4.68707 38143 ft 447 kts 350°
2026-04-23 21:27 47.99689 -4.70134 38133 ft 446 kts 350°
2026-04-23 21:27 48.05816 -4.71558 38142 ft 445 kts 350°
2026-04-23 21:28 48.11924 -4.72981 38139 ft 444 kts 350°
2026-04-23 21:28 48.16997 -4.74165 38142 ft 443 kts 350°
2026-04-23 21:29 48.23092 -4.75592 38146 ft 443 kts 350°
2026-04-23 21:29 48.30160 -4.77251 38152 ft 442 kts 350°
2026-04-23 21:30 48.35256 -4.78449 38156 ft 442 kts 349°
2026-04-23 21:30 48.41331 -4.79882 38156 ft 442 kts 349°
2026-04-23 21:31 48.47415 -4.81320 38162 ft 442 kts 349°
2026-04-23 21:31 48.53455 -4.82751 38161 ft 443 kts 349°
2026-04-23 21:32 48.59545 -4.84193 38163 ft 443 kts 349°
2026-04-23 21:32 48.65646 -4.85654 38164 ft 444 kts 348°
2026-04-23 21:33 48.71608 -4.88018 38172 ft 443 kts 340°
2026-04-23 21:33 48.77441 -4.91026 38181 ft 443 kts 339°
2026-04-23 21:34 48.83270 -4.94104 38183 ft 444 kts 338°
2026-04-23 21:34 48.89117 -4.97160 38186 ft 444 kts 339°
2026-04-23 21:35 48.94974 -5.00194 38177 ft 445 kts 339°
2026-04-23 21:35 49.00830 -5.03228 38197 ft 445 kts 339°
2026-04-23 21:36 49.09582 -5.07780 38194 ft 444 kts 339°
2026-04-23 21:37 49.15431 -5.10832 38196 ft 444 kts 339°
2026-04-23 21:37 49.21273 -5.13888 38198 ft 443 kts 339°
2026-04-23 21:38 49.27108 -5.16948 38197 ft 443 kts 339°
2026-04-23 21:38 49.32934 -5.20011 38201 ft 442 kts 339°
2026-04-23 21:39 49.38749 -5.23079 38206 ft 441 kts 339°
2026-04-23 21:39 49.44556 -5.26146 38206 ft 441 kts 339°
2026-04-23 21:40 49.50365 -5.29219 38212 ft 441 kts 339°
2026-04-23 21:40 49.56160 -5.32293 38214 ft 441 kts 339°
2026-04-23 21:41 49.61960 -5.35377 38214 ft 441 kts 339°
2026-04-23 21:41 49.67756 -5.38469 38227 ft 441 kts 339°
2026-04-23 21:42 49.73554 -5.41568 38220 ft 441 kts 339°
2026-04-23 21:42 49.79316 -5.44657 38215 ft 442 kts 339°
2026-04-23 21:43 49.85135 -5.47778 38233 ft 443 kts 339°
2026-04-23 21:43 49.90966 -5.50926 38223 ft 444 kts 339°
2026-04-23 21:44 49.96816 -5.54086 38244 ft 445 kts 339°
2026-04-23 21:44 50.02674 -5.57257 38231 ft 447 kts 339°
2026-04-23 21:45 50.08544 -5.60443 38242 ft 447 kts 339°
2026-04-23 21:45 50.14425 -5.63644 38237 ft 448 kts 339°
2026-04-23 21:46 50.20271 -5.66834 38234 ft 447 kts 339°
2026-04-23 21:46 50.26145 -5.70048 38245 ft 447 kts 339°
2026-04-23 21:47 50.32006 -5.73263 38235 ft 446 kts 339°
2026-04-23 21:47 50.37864 -5.76485 38239 ft 445 kts 339°
2026-04-23 21:48 50.43703 -5.79705 38238 ft 444 kts 339°
2026-04-23 21:48 50.49530 -5.82927 38237 ft 443 kts 339°
2026-04-23 21:49 50.55348 -5.86152 38254 ft 442 kts 339°
2026-04-23 21:49 50.61153 -5.89378 38243 ft 442 kts 339°
2026-04-23 21:50 50.66949 -5.92609 38257 ft 442 kts 339°
2026-04-23 21:50 50.72740 -5.95845 38258 ft 442 kts 339°
2026-04-23 21:51 50.78537 -5.99092 38254 ft 442 kts 339°
2026-04-23 21:51 50.84331 -6.02348 38261 ft 442 kts 339°
2026-04-23 21:52 50.90139 -6.05618 38248 ft 443 kts 339°
2026-04-23 21:52 50.95946 -6.08897 38262 ft 443 kts 339°
2026-04-23 21:52 50.98867 -6.10550 37927 ft 446 kts 339°
2026-04-23 21:53 51.01730 -6.12170 37638 ft 438 kts 339°
2026-04-23 21:53 51.04583 -6.13788 37275 ft 432 kts 339°
2026-04-23 21:53 51.07398 -6.15386 36893 ft 427 kts 339°
2026-04-23 21:53 51.10190 -6.16974 36528 ft 423 kts 339°
2026-04-23 21:54 51.12950 -6.18543 36162 ft 419 kts 339°
2026-04-23 21:54 51.15682 -6.20101 35793 ft 416 kts 339°
2026-04-23 21:54 51.18401 -6.21658 35420 ft 413 kts 339°
2026-04-23 21:54 51.21092 -6.23198 35062 ft 410 kts 339°
2026-04-23 21:55 51.23768 -6.24730 34705 ft 407 kts 339°
2026-04-23 21:55 51.26423 -6.26250 34351 ft 404 kts 339°
2026-04-23 21:55 51.29062 -6.27764 33951 ft 402 kts 339°
2026-04-23 21:55 51.31651 -6.29251 33574 ft 399 kts 339°
2026-04-23 21:56 51.34255 -6.30748 33218 ft 396 kts 339°
2026-04-23 21:56 51.36836 -6.32234 32855 ft 393 kts 339°
2026-04-23 21:56 51.39402 -6.33713 32508 ft 390 kts 339°
2026-04-23 21:56 51.41941 -6.35179 32168 ft 387 kts 340°
2026-04-23 21:57 51.44466 -6.36638 31827 ft 384 kts 340°
2026-04-23 21:57 51.46974 -6.38089 31496 ft 382 kts 340°
2026-04-23 21:57 51.49462 -6.39530 31160 ft 379 kts 340°
2026-04-23 21:57 51.51939 -6.40967 30837 ft 377 kts 340°
2026-04-23 21:58 51.54395 -6.42393 30512 ft 375 kts 340°
2026-04-23 21:58 51.56843 -6.43816 30148 ft 373 kts 340°
2026-04-23 21:58 51.59275 -6.45232 29770 ft 370 kts 340°
2026-04-23 21:58 51.61696 -6.46557 29391 ft 367 kts 347°
2026-04-23 21:59 51.64212 -6.47200 28994 ft 365 kts 355°
2026-04-23 21:59 51.66731 -6.47549 28622 ft 362 kts 355°
2026-04-23 21:59 51.69229 -6.47888 28307 ft 358 kts 355°
2026-04-23 22:00 51.74180 -6.48553 27626 ft 355 kts 356°
2026-04-23 22:00 51.76648 -6.48886 27305 ft 356 kts 356°
2026-04-23 22:00 51.79114 -6.49218 26985 ft 366 kts 356°
2026-04-23 22:00 51.81716 -6.49568 26637 ft 372 kts 356°
2026-04-23 22:01 51.84261 -6.49914 26286 ft 370 kts 356°
2026-04-23 22:01 51.86816 -6.50262 25932 ft 367 kts 356°
2026-04-23 22:01 51.89353 -6.50608 25588 ft 365 kts 356°
2026-04-23 22:01 51.91876 -6.50952 25258 ft 362 kts 356°
2026-04-23 22:02 51.94378 -6.51294 24918 ft 360 kts 357°
2026-04-23 22:02 51.96862 -6.51634 24588 ft 358 kts 356°
2026-04-23 22:02 51.99335 -6.51972 24260 ft 355 kts 356°
2026-04-23 22:02 52.01793 -6.52309 23929 ft 354 kts 357°
2026-04-23 22:03 52.04246 -6.52645 23537 ft 353 kts 356°
2026-04-23 22:03 52.06684 -6.52980 23180 ft 350 kts 357°
2026-04-23 22:03 52.09099 -6.53312 22838 ft 347 kts 357°
2026-04-23 22:03 52.11500 -6.53642 22519 ft 344 kts 356°
2026-04-23 22:04 52.13873 -6.53969 22215 ft 341 kts 356°
2026-04-23 22:04 52.16227 -6.54294 21886 ft 338 kts 357°
2026-04-23 22:04 52.18564 -6.54616 21570 ft 336 kts 357°
2026-04-23 22:04 52.20883 -6.54937 21265 ft 333 kts 356°
2026-04-23 22:05 52.23188 -6.55255 20956 ft 331 kts 357°
2026-04-23 22:05 52.25476 -6.55572 20649 ft 329 kts 357°
2026-04-23 22:05 52.27746 -6.55886 20344 ft 327 kts 356°
2026-04-23 22:05 52.30009 -6.56201 20044 ft 325 kts 356°
2026-04-23 22:06 52.32261 -6.56513 19745 ft 324 kts 356°
2026-04-23 22:06 52.34500 -6.56824 19430 ft 322 kts 356°
2026-04-23 22:06 52.36704 -6.57130 19137 ft 321 kts 356°
2026-04-23 22:06 52.38927 -6.57438 18841 ft 320 kts 356°
2026-04-23 22:07 52.41139 -6.57750 18541 ft 319 kts 356°
2026-04-23 22:07 52.43351 -6.58059 18199 ft 318 kts 356°
2026-04-23 22:07 52.45547 -6.58366 17881 ft 316 kts 356°
2026-04-23 22:07 52.47734 -6.58671 17572 ft 315 kts 356°
2026-04-23 22:08 52.49910 -6.58976 17276 ft 313 kts 356°
2026-04-23 22:08 52.52074 -6.59279 16981 ft 311 kts 356°
2026-04-23 22:08 52.54230 -6.59580 16688 ft 311 kts 356°
2026-04-23 22:08 52.56401 -6.59885 16402 ft 315 kts 356°
2026-04-23 22:09 52.58602 -6.60193 16111 ft 321 kts 356°
2026-04-23 22:09 52.60847 -6.60508 15810 ft 327 kts 356°
2026-04-23 22:09 52.63117 -6.60829 15484 ft 327 kts 356°
2026-04-23 22:09 52.65389 -6.61141 15135 ft 327 kts 356°
2026-04-23 22:10 52.67652 -6.61414 14821 ft 325 kts 357°
2026-04-23 22:10 52.69905 -6.61672 14516 ft 324 kts 357°
2026-04-23 22:10 52.72123 -6.61923 14212 ft 322 kts 357°
2026-04-23 22:10 52.74356 -6.62179 13883 ft 321 kts 357°
2026-04-23 22:11 52.76582 -6.62435 13547 ft 320 kts 357°
2026-04-23 22:11 52.78791 -6.62692 13243 ft 317 kts 357°
2026-04-23 22:11 52.80988 -6.62949 12940 ft 315 kts 357°
2026-04-23 22:11 52.83170 -6.63204 12638 ft 313 kts 357°
2026-04-23 22:12 52.85334 -6.63458 12348 ft 311 kts 356°
2026-04-23 22:12 52.87487 -6.63712 12059 ft 309 kts 356°
2026-04-23 22:12 52.89625 -6.63964 11769 ft 307 kts 357°
2026-04-23 22:12 52.91753 -6.64216 11485 ft 306 kts 357°
2026-04-23 22:13 52.93867 -6.64466 11204 ft 304 kts 357°
2026-04-23 22:13 52.95974 -6.64715 10913 ft 303 kts 357°
2026-04-23 22:13 52.98071 -6.64964 10629 ft 301 kts 357°
2026-04-23 22:13 53.00161 -6.65212 10349 ft 300 kts 357°
2026-04-23 22:14 53.02240 -6.65459 10044 ft 299 kts 357°
2026-04-23 22:14 53.04313 -6.65705 9744 ft 298 kts 357°
2026-04-23 22:14 53.06379 -6.65951 9454 ft 297 kts 357°
2026-04-23 22:14 53.08433 -6.66196 9158 ft 295 kts 357°
2026-04-23 22:15 53.10510 -6.66443 8623 ft 303 kts 357°
2026-04-23 22:15 53.12609 -6.66694 8265 ft 302 kts 357°
2026-04-23 22:15 53.14702 -6.66944 7979 ft 300 kts 357°
2026-04-23 22:15 53.16757 -6.67190 7681 ft 299 kts 357°
2026-04-23 22:16 53.18823 -6.67438 7393 ft 297 kts 357°
2026-04-23 22:16 53.20876 -6.67684 7106 ft 295 kts 357°
2026-04-23 22:16 53.22916 -6.67929 6822 ft 293 kts 357°
2026-04-23 22:16 53.24943 -6.68172 6526 ft 291 kts 357°
2026-04-23 22:17 53.26954 -6.68414 6234 ft 289 kts 358°
2026-04-23 22:17 53.28278 -6.68573 6050 ft 287 kts 358°
2026-04-23 22:17 53.30247 -6.68810 5909 ft 280 kts 358°
2026-04-23 22:17 53.32161 -6.69041 5781 ft 272 kts 358°
2026-04-23 22:18 53.34022 -6.69266 5669 ft 265 kts 358°
2026-04-23 22:18 53.35837 -6.69486 5560 ft 257 kts 358°
2026-04-23 22:18 53.37608 -6.69540 5349 ft 253 kts
2026-04-23 22:18 53.39907 -6.69149 5100 ft 248 kts
2026-04-23 22:19 53.41056 -6.68943 5039 ft 243 kts
2026-04-23 22:19 53.42731 -6.68658 4833 ft 242 kts
2026-04-23 22:19 53.44331 -6.68057 4704 ft 228 kts 35°
2026-04-23 22:19 53.45322 -6.66196 4631 ft 212 kts 76°
2026-04-23 22:20 53.45480 -6.63773 4415 ft 210 kts 93°
2026-04-23 22:20 53.45515 -6.61343 4144 ft 206 kts 94°
2026-04-23 22:20 53.45466 -6.59003 3880 ft 200 kts 97°
2026-04-23 22:20 53.45353 -6.56716 3620 ft 193 kts 98°
2026-04-23 22:21 53.45227 -6.54511 3349 ft 186 kts 99°
2026-04-23 22:21 53.45103 -6.52388 3106 ft 180 kts 99°
2026-04-23 22:21 53.44983 -6.50326 2861 ft 175 kts 99°
2026-04-23 22:21 53.44867 -6.48318 2632 ft 171 kts 99°
2026-04-23 22:22 53.44754 -6.46361 2405 ft 166 kts 99°
2026-04-23 22:22 53.44645 -6.44453 2188 ft 162 kts 99°
2026-04-23 22:22 53.44538 -6.42595 1951 ft 158 kts 99°
2026-04-23 22:22 53.44434 -6.40776 1751 ft 155 kts 99°
2026-04-23 22:23 53.44332 -6.38980 1541 ft 154 kts 98°
2026-04-23 22:23 53.44232 -6.37203 1331 ft 149 kts 98°
2026-04-23 22:23 53.44138 -6.35535 1172 ft 141 kts 97°
2026-04-23 22:23 53.44042 -6.33856 949 ft 146 kts 96°
2026-04-23 22:24 53.43943 -6.32157 733 ft 147 kts 95°
2026-04-23 22:24 53.43848 -6.30467 521 ft 144 kts 95°
2026-04-23 22:24 53.43759 -6.28783 337 ft 145 kts 95°
2026-04-23 22:24 53.43663 -6.27120 216 ft 137 kts 94°
2026-04-23 22:25 53.43594 -6.25807 209 ft 83 kts 95°
2026-04-23 22:25 53.43541 -6.25283 214 ft 29 kts 112°
2026-04-23 22:25 53.43470 -6.25063 211 ft 18 kts 121°
2026-04-23 22:25 53.43408 -6.24887 210 ft 17 kts 119°
2026-04-23 22:26 53.43362 -6.24711 214 ft 15 kts 99°
2026-04-23 22:26 53.43351 -6.24543 210 ft 14 kts 96°
2026-04-23 22:26 53.43320 -6.24408 213 ft 11 kts 160°
2026-04-23 22:26 53.43245 -6.24411 212 ft 11 kts 185°
2026-04-23 22:27 53.43189 -6.24466 210 ft 10 kts 261°
2026-04-23 22:27 53.43195 -6.24598 210 ft 14 kts 274°
2026-04-23 22:27 53.43205 -6.24808 210 ft 20 kts 275°
2026-04-23 22:27 53.43199 -6.24934 219 ft 8 kts 213°
2026-04-23 22:28 53.43143 -6.24954 210 ft 9 kts 188°
2026-04-23 22:28 53.43110 -6.24959 217 ft 1 kts 185°
2026-04-23 22:28 53.43108 -6.24959 217 ft 0 kts 185°